DAL2066 KDTW-KLAS

Flight info

Callsign DAL2066
Flight time 3h 54m
Altitude 32000
Route KAYLN3 SMUUV OBK IOW J60 LNK/N0456F340 J60 HVE GGAPP CHOWW4
Aircraft A321/M-SDE3FGHIRWY/LB1

Departure

Time 2026-05-07 21:35
Airport Detroit Metropolitan Wayne County Airport (KDTW)

Arrival

Time 2026-05-08 01:29
Airport Harry Reid International Airport (KLAS)
Time Latitude Longitude Altitude Speed Heading
2026-05-07 21:20 42.20435 -83.36164 646 ft 0 kts 121°
2026-05-07 21:25 42.20438 -83.36171 647 ft 2 kts 121°
2026-05-07 21:25 42.20449 -83.36194 646 ft 3 kts 121°
2026-05-07 21:26 42.20459 -83.36217 647 ft 3 kts 121°
2026-05-07 21:26 42.20469 -83.36240 646 ft 3 kts 104°
2026-05-07 21:26 42.20470 -83.36260 646 ft 3 kts 50°
2026-05-07 21:26 42.20461 -83.36270 646 ft 1 kts 29°
2026-05-07 21:27 42.20447 -83.36281 646 ft 2 kts 29°
2026-05-07 21:27 42.20443 -83.36284 646 ft 0 kts 29°
2026-05-07 21:28 42.20459 -83.36272 646 ft 10 kts 29°
2026-05-07 21:29 42.20553 -83.36202 647 ft 20 kts 29°
2026-05-07 21:29 42.20699 -83.36097 647 ft 28 kts 29°
2026-05-07 21:29 42.20877 -83.35967 648 ft 27 kts 29°
2026-05-07 21:29 42.21034 -83.35848 646 ft 25 kts 30°
2026-05-07 21:30 42.21182 -83.35737 646 ft 23 kts 28°
2026-05-07 21:30 42.21321 -83.35639 646 ft 22 kts 28°
2026-05-07 21:30 42.21455 -83.35540 646 ft 22 kts 28°
2026-05-07 21:30 42.21549 -83.35388 646 ft 22 kts 80°
2026-05-07 21:31 42.21553 -83.35185 646 ft 21 kts 90°
2026-05-07 21:31 42.21603 -83.35012 646 ft 21 kts 56°
2026-05-07 21:31 42.21719 -83.34874 647 ft 25 kts 40°
2026-05-07 21:31 42.21853 -83.34712 649 ft 8 kts 41°
2026-05-07 21:32 42.21838 -83.34647 646 ft 13 kts 104°
2026-05-07 21:32 42.21864 -83.34504 647 ft 17 kts 44°
2026-05-07 21:32 42.21998 -83.34401 646 ft 27 kts 29°
2026-05-07 21:32 42.22167 -83.34277 647 ft 27 kts 28°
2026-05-07 21:33 42.22327 -83.34160 646 ft 25 kts 29°
2026-05-07 21:33 42.22475 -83.34048 646 ft 23 kts 29°
2026-05-07 21:33 42.22612 -83.33946 647 ft 22 kts 28°
2026-05-07 21:33 42.22741 -83.33852 646 ft 20 kts 28°
2026-05-07 21:34 42.22852 -83.33757 645 ft 17 kts 58°
2026-05-07 21:34 42.22817 -83.33640 645 ft 13 kts 147°
2026-05-07 21:34 42.22754 -83.33669 646 ft 12 kts 207°
2026-05-07 21:34 42.22537 -83.33830 647 ft 70 kts 208°
2026-05-07 21:35 42.21914 -83.34288 647 ft 131 kts 209°
2026-05-07 21:35 42.20992 -83.35019 726 ft 168 kts 208°
2026-05-07 21:35 42.20033 -83.35768 1500 ft 156 kts 214°
2026-05-07 21:35 42.19274 -83.36797 2038 ft 157 kts 242°
2026-05-07 21:36 42.18643 -83.38024 2466 ft 166 kts 238°
2026-05-07 21:36 42.17915 -83.39327 2587 ft 181 kts 238°
2026-05-07 21:36 42.17111 -83.40740 2729 ft 200 kts 237°
2026-05-07 21:36 42.16234 -83.42293 2855 ft 219 kts 238°
2026-05-07 21:37 42.15254 -83.44022 3077 ft 242 kts 236°
2026-05-07 21:37 42.14213 -83.45845 3693 ft 248 kts 237°
2026-05-07 21:37 42.13158 -83.47696 4442 ft 249 kts 237°
2026-05-07 21:37 42.12103 -83.49555 5189 ft 250 kts 237°
2026-05-07 21:38 42.11045 -83.51419 5923 ft 251 kts 237°
2026-05-07 21:38 42.09982 -83.53295 6619 ft 254 kts 237°
2026-05-07 21:38 42.08904 -83.55193 6942 ft 254 kts 238°
2026-05-07 21:38 42.07832 -83.57077 7009 ft 253 kts 237°
2026-05-07 21:39 42.06795 -83.58984 7013 ft 250 kts 245°
2026-05-07 21:39 42.06229 -83.61144 7015 ft 244 kts 265°
2026-05-07 21:39 42.06307 -83.63403 7112 ft 246 kts 285°
2026-05-07 21:39 42.07027 -83.65489 7816 ft 248 kts 303°
2026-05-07 21:40 42.08038 -83.67369 8533 ft 249 kts 303°
2026-05-07 21:40 42.09061 -83.69270 8945 ft 251 kts 303°
2026-05-07 21:40 42.10081 -83.71166 9021 ft 250 kts 303°
2026-05-07 21:40 42.11098 -83.73056 9015 ft 249 kts 303°
2026-05-07 21:41 42.12116 -83.74945 9014 ft 249 kts 303°
2026-05-07 21:41 42.13135 -83.76827 9017 ft 249 kts 303°
2026-05-07 21:41 42.14151 -83.78713 9015 ft 249 kts 303°
2026-05-07 21:41 42.15166 -83.80603 9018 ft 250 kts 303°
2026-05-07 21:42 42.16193 -83.82509 9267 ft 253 kts 303°
2026-05-07 21:42 42.17225 -83.84428 10070 ft 252 kts 302°
2026-05-07 21:42 42.18258 -83.86368 10412 ft 268 kts 302°
2026-05-07 21:42 42.19010 -83.87785 10495 ft 283 kts 303°
2026-05-07 21:43 42.20603 -83.90774 10670 ft 309 kts 303°
2026-05-07 21:43 42.21471 -83.92393 10755 ft 321 kts 303°
2026-05-07 21:43 42.23251 -83.95709 11265 ft 334 kts 303°
2026-05-07 21:43 42.24623 -83.98262 11904 ft 337 kts 303°
2026-05-07 21:44 42.26001 -84.00826 12601 ft 338 kts 303°
2026-05-07 21:44 42.27383 -84.03405 13272 ft 339 kts 302°
2026-05-07 21:44 42.28318 -84.05150 13737 ft 340 kts 302°
2026-05-07 21:44 42.29707 -84.07750 14318 ft 341 kts 302°
2026-05-07 21:45 42.31101 -84.10364 14857 ft 344 kts 302°
2026-05-07 21:45 42.32505 -84.12998 15366 ft 347 kts 302°
2026-05-07 21:45 42.33918 -84.15658 15866 ft 350 kts 302°
2026-05-07 21:45 42.35324 -84.18309 16368 ft 353 kts 302°
2026-05-07 21:46 42.36762 -84.21020 16871 ft 356 kts 303°
2026-05-07 21:46 42.38213 -84.23755 17348 ft 359 kts 303°
2026-05-07 21:46 42.39673 -84.26508 17815 ft 361 kts 303°
2026-05-07 21:46 42.41132 -84.29291 18250 ft 364 kts 301°
2026-05-07 21:47 42.42310 -84.32320 18611 ft 365 kts 290°
2026-05-07 21:47 42.43029 -84.35616 18993 ft 367 kts 281°
2026-05-07 21:47 42.43281 -84.39065 19368 ft 370 kts 273°
2026-05-07 21:47 42.43370 -84.42550 19766 ft 372 kts 273°
2026-05-07 21:48 42.43460 -84.46056 20163 ft 374 kts 273°
2026-05-07 21:48 42.43552 -84.49587 20561 ft 376 kts 273°
2026-05-07 21:48 42.43644 -84.53135 20962 ft 378 kts 273°
2026-05-07 21:48 42.43732 -84.56699 21354 ft 380 kts 273°
2026-05-07 21:49 42.43822 -84.60293 21744 ft 382 kts 273°
2026-05-07 21:49 42.43916 -84.63896 22120 ft 384 kts 273°
2026-05-07 21:49 42.44010 -84.67521 22473 ft 387 kts 273°
2026-05-07 21:49 42.44103 -84.71178 22810 ft 389 kts 273°
2026-05-07 21:50 42.44195 -84.74854 23158 ft 392 kts 273°
2026-05-07 21:50 42.44286 -84.78559 23521 ft 395 kts 273°
2026-05-07 21:50 42.44371 -84.82278 23818 ft 396 kts 273°
2026-05-07 21:50 42.44454 -84.86020 24119 ft 397 kts 273°
2026-05-07 21:51 42.44533 -84.89771 24419 ft 398 kts 273°
2026-05-07 21:51 42.44611 -84.93531 24714 ft 399 kts 273°
2026-05-07 21:51 42.44690 -84.97247 25004 ft 401 kts 273°
2026-05-07 21:51 42.44776 -85.01023 25300 ft 402 kts 273°
2026-05-07 21:52 42.44863 -85.04802 25595 ft 403 kts 273°
2026-05-07 21:52 42.44950 -85.08597 25855 ft 404 kts 273°
2026-05-07 21:52 42.45032 -85.12412 26114 ft 406 kts 273°
2026-05-07 21:52 42.45108 -85.16227 26467 ft 404 kts 273°
2026-05-07 21:53 42.45179 -85.20030 26849 ft 403 kts 273°
2026-05-07 21:53 42.45249 -85.23816 27235 ft 401 kts 273°
2026-05-07 21:53 42.45320 -85.27588 27623 ft 399 kts 273°
2026-05-07 21:53 42.45392 -85.31337 27999 ft 398 kts 273°
2026-05-07 21:54 42.45465 -85.35074 28379 ft 396 kts 273°
2026-05-07 21:54 42.45534 -85.38801 28760 ft 394 kts 272°
2026-05-07 21:54 42.45599 -85.42503 29117 ft 393 kts 272°
2026-05-07 21:54 42.45660 -85.46197 29460 ft 391 kts 272°
2026-05-07 21:55 42.45721 -85.49870 29822 ft 389 kts 272°
2026-05-07 21:55 42.45785 -85.53527 30142 ft 388 kts 272°
2026-05-07 21:55 42.45848 -85.57124 30396 ft 387 kts 273°
2026-05-07 21:55 42.45913 -85.60810 30635 ft 386 kts 272°
2026-05-07 21:56 42.45973 -85.64394 30871 ft 386 kts 272°
2026-05-07 21:56 42.46029 -85.68022 31089 ft 386 kts 272°
2026-05-07 21:56 42.46084 -85.71698 31309 ft 385 kts 272°
2026-05-07 21:56 42.46135 -85.75330 31544 ft 386 kts 272°
2026-05-07 21:57 42.46185 -85.78957 31789 ft 385 kts 272°
2026-05-07 21:57 42.46239 -85.82533 31943 ft 385 kts 272°
2026-05-07 21:57 42.46348 -85.89783 31978 ft 384 kts 272°
2026-05-07 21:58 42.46447 -85.97007 31978 ft 383 kts 272°
2026-05-07 21:58 42.46531 -86.04224 31977 ft 383 kts 272°
2026-05-07 21:59 42.46606 -86.11445 31979 ft 383 kts 270°
2026-05-07 21:59 42.45888 -86.18628 31951 ft 386 kts 263°
2026-05-07 22:00 42.44988 -86.25741 31933 ft 385 kts 263°
2026-05-07 22:00 42.44074 -86.32895 31937 ft 385 kts 263°
2026-05-07 22:01 42.43158 -86.40047 31945 ft 386 kts 263°
2026-05-07 22:01 42.42241 -86.47187 31951 ft 385 kts 263°
2026-05-07 22:02 42.41323 -86.54325 31954 ft 385 kts 263°
2026-05-07 22:02 42.40392 -86.61462 31942 ft 385 kts 263°
2026-05-07 22:03 42.39458 -86.68576 31942 ft 386 kts 263°
2026-05-07 22:03 42.38517 -86.75729 31943 ft 387 kts 263°
2026-05-07 22:04 42.37575 -86.82894 31937 ft 387 kts 263°
2026-05-07 22:04 42.36624 -86.90065 31936 ft 387 kts 263°
2026-05-07 22:05 42.35680 -86.97166 31915 ft 385 kts 263°
2026-05-07 22:05 42.34730 -87.04292 31942 ft 385 kts 263°
2026-05-07 22:06 42.33768 -87.11415 31956 ft 385 kts 263°
2026-05-07 22:06 42.32805 -87.18526 31954 ft 384 kts 263°
2026-05-07 22:07 42.31842 -87.25615 31961 ft 384 kts 263°
2026-05-07 22:07 42.30870 -87.32703 31962 ft 383 kts 263°
2026-05-07 22:08 42.29895 -87.39790 31943 ft 383 kts 263°
2026-05-07 22:08 42.28921 -87.46874 31933 ft 383 kts 263°
2026-05-07 22:09 42.27947 -87.53962 31933 ft 384 kts 263°
2026-05-07 22:09 42.26963 -87.61059 31927 ft 385 kts 263°
2026-05-07 22:10 42.25966 -87.68130 31925 ft 386 kts 263°
2026-05-07 22:10 42.24961 -87.75253 31915 ft 385 kts 263°
2026-05-07 22:11 42.23957 -87.82343 31931 ft 384 kts 263°
2026-05-07 22:11 42.22954 -87.89419 31928 ft 384 kts 263°
2026-05-07 22:12 42.21937 -87.96486 31926 ft 384 kts 262°
2026-05-07 22:12 42.20755 -88.03514 31910 ft 385 kts 261°
2026-05-07 22:13 42.19479 -88.10521 31908 ft 384 kts 261°
2026-05-07 22:13 42.18215 -88.17520 31882 ft 383 kts 261°
2026-05-07 22:14 42.16980 -88.24499 31918 ft 382 kts 262°
2026-05-07 22:14 42.15756 -88.31457 31940 ft 381 kts 261°
2026-05-07 22:15 42.14535 -88.38345 31939 ft 380 kts 262°
2026-05-07 22:15 42.13302 -88.45256 31935 ft 379 kts 261°
2026-05-07 22:16 42.12066 -88.52150 31917 ft 378 kts 262°
2026-05-07 22:16 42.10835 -88.59020 31926 ft 377 kts 262°
2026-05-07 22:17 42.09600 -88.65874 31931 ft 376 kts 262°
2026-05-07 22:17 42.08359 -88.72725 31921 ft 376 kts 262°
2026-05-07 22:18 42.06490 -88.82972 31919 ft 376 kts 262°
2026-05-07 22:19 42.05244 -88.89798 31891 ft 375 kts 262°
2026-05-07 22:19 42.03989 -88.96614 31899 ft 376 kts 262°
2026-05-07 22:20 42.02731 -89.03430 31904 ft 375 kts 262°
2026-05-07 22:20 42.01476 -89.10237 31891 ft 375 kts 262°
2026-05-07 22:21 42.00215 -89.17055 31893 ft 375 kts 262°
2026-05-07 22:21 41.98958 -89.23810 31865 ft 375 kts 262°
2026-05-07 22:22 41.97689 -89.30639 31898 ft 378 kts 262°
2026-05-07 22:22 41.96403 -89.37479 31910 ft 377 kts 262°
2026-05-07 22:23 41.95113 -89.44290 31912 ft 376 kts 262°
2026-05-07 22:23 41.93824 -89.51126 31904 ft 375 kts 262°
2026-05-07 22:24 41.92542 -89.57869 31893 ft 374 kts 262°
2026-05-07 22:24 41.91259 -89.64637 31891 ft 374 kts 262°
2026-05-07 22:25 41.89977 -89.71399 31880 ft 374 kts 262°
2026-05-07 22:25 41.88685 -89.78161 31873 ft 374 kts 262°
2026-05-07 22:26 41.87389 -89.84927 31883 ft 374 kts 261°
2026-05-07 22:26 41.86081 -89.91685 31881 ft 375 kts 261°
2026-05-07 22:27 41.84769 -89.98449 31886 ft 375 kts 261°
2026-05-07 22:27 41.83675 -90.04091 31891 ft 378 kts 262°
2026-05-07 22:28 41.82348 -90.10920 31898 ft 379 kts 262°
2026-05-07 22:28 41.81011 -90.17750 31898 ft 378 kts 262°
2026-05-07 22:29 41.79675 -90.24570 31892 ft 378 kts 262°
2026-05-07 22:29 41.78335 -90.31382 31895 ft 378 kts 261°
2026-05-07 22:30 41.76992 -90.38189 31876 ft 379 kts 261°
2026-05-07 22:30 41.75650 -90.44995 31879 ft 381 kts 261°
2026-05-07 22:31 41.74285 -90.51846 31893 ft 381 kts 261°
2026-05-07 22:31 41.72920 -90.58696 31896 ft 381 kts 261°
2026-05-07 22:32 41.71550 -90.65548 31898 ft 381 kts 261°
2026-05-07 22:32 41.70172 -90.72404 31900 ft 381 kts 261°
2026-05-07 22:33 41.68792 -90.79250 31879 ft 381 kts 261°
2026-05-07 22:33 41.67414 -90.86057 31888 ft 382 kts 261°
2026-05-07 22:34 41.66020 -90.92928 31893 ft 383 kts 261°
2026-05-07 22:34 41.64619 -90.99812 31902 ft 384 kts 261°
2026-05-07 22:35 41.63217 -91.06706 31906 ft 385 kts 261°
2026-05-07 22:35 41.61805 -91.13605 31912 ft 385 kts 261°
2026-05-07 22:36 41.60382 -91.20517 31895 ft 386 kts 260°
2026-05-07 22:36 41.58952 -91.27442 31904 ft 387 kts 260°
2026-05-07 22:37 41.57523 -91.34367 31903 ft 387 kts 260°
2026-05-07 22:37 41.56087 -91.41296 31909 ft 387 kts 260°
2026-05-07 22:38 41.54639 -91.48225 31895 ft 388 kts 260°
2026-05-07 22:38 41.53181 -91.55168 31900 ft 389 kts 259°
2026-05-07 22:39 41.51814 -91.62169 31906 ft 387 kts 266°
2026-05-07 22:39 41.51158 -91.69235 31908 ft 386 kts 267°
2026-05-07 22:40 41.50497 -91.76351 31914 ft 387 kts 266°
2026-05-07 22:40 41.49819 -91.83472 31909 ft 386 kts 266°
2026-05-07 22:41 41.49142 -91.90580 31919 ft 386 kts 266°
2026-05-07 22:41 41.48461 -91.97689 31900 ft 387 kts 266°
2026-05-07 22:42 41.47773 -92.04830 31895 ft 389 kts 266°
2026-05-07 22:42 41.47079 -92.11994 31900 ft 389 kts 266°
2026-05-07 22:43 41.46383 -92.19153 31897 ft 389 kts 266°
2026-05-07 22:43 41.45681 -92.26313 31902 ft 390 kts 266°
2026-05-07 22:44 41.44969 -92.33488 31879 ft 391 kts 266°
2026-05-07 22:44 41.44247 -92.40676 31886 ft 392 kts 266°
2026-05-07 22:45 41.43530 -92.47846 31886 ft 393 kts 266°
2026-05-07 22:45 41.42799 -92.55070 31892 ft 394 kts 266°
2026-05-07 22:46 41.42062 -92.62304 31899 ft 394 kts 266°
2026-05-07 22:46 41.41321 -92.69547 31877 ft 394 kts 265°
2026-05-07 22:47 41.40574 -92.76798 31881 ft 395 kts 266°
2026-05-07 22:47 41.39820 -92.84064 31887 ft 397 kts 265°
2026-05-07 22:48 41.39058 -92.91341 31890 ft 397 kts 265°
2026-05-07 22:48 41.38303 -92.98633 31897 ft 397 kts 265°
2026-05-07 22:49 41.37540 -93.05922 31876 ft 398 kts 265°
2026-05-07 22:49 41.36770 -93.13168 31863 ft 398 kts 265°
2026-05-07 22:50 41.35981 -93.20474 31863 ft 399 kts 265°
2026-05-07 22:50 41.35190 -93.27793 31871 ft 400 kts 265°
2026-05-07 22:51 41.34406 -93.35117 31877 ft 400 kts 265°
2026-05-07 22:51 41.33609 -93.42443 31887 ft 400 kts 265°
2026-05-07 22:52 41.32798 -93.49770 31883 ft 401 kts 265°
2026-05-07 22:52 41.31986 -93.57113 31889 ft 401 kts 265°
2026-05-07 22:53 41.31178 -93.64448 31891 ft 401 kts 265°
2026-05-07 22:53 41.30366 -93.71789 31894 ft 401 kts 265°
2026-05-07 22:54 41.29537 -93.79138 31898 ft 401 kts 265°
2026-05-07 22:54 41.28708 -93.86445 31870 ft 402 kts 264°
2026-05-07 22:55 41.27871 -93.93796 31844 ft 403 kts 264°
2026-05-07 22:55 41.27034 -94.01167 31857 ft 404 kts 264°
2026-05-07 22:56 41.26188 -94.08557 31865 ft 404 kts 264°
2026-05-07 22:56 41.25336 -94.15955 31865 ft 405 kts 264°
2026-05-07 22:57 41.24472 -94.23349 31855 ft 405 kts 264°
2026-05-07 22:57 41.23612 -94.30748 31859 ft 405 kts 264°
2026-05-07 22:58 41.22750 -94.38091 31860 ft 405 kts 264°
2026-05-07 22:58 41.21873 -94.45490 31864 ft 405 kts 264°
2026-05-07 22:59 41.20994 -94.52889 31867 ft 406 kts 264°
2026-05-07 22:59 41.20108 -94.60296 31871 ft 405 kts 264°
2026-05-07 23:00 41.19222 -94.67685 31879 ft 405 kts 263°
2026-05-07 23:00 41.18330 -94.75068 31881 ft 405 kts 263°
2026-05-07 23:01 41.17430 -94.82444 31881 ft 404 kts 263°
2026-05-07 23:01 41.16531 -94.89806 31877 ft 404 kts 263°
2026-05-07 23:02 41.15630 -94.97124 31864 ft 404 kts 263°
2026-05-07 23:02 41.14719 -95.04486 31869 ft 404 kts 263°
2026-05-07 23:03 41.13806 -95.11840 31863 ft 404 kts 263°
2026-05-07 23:03 41.12887 -95.19183 31857 ft 404 kts 263°
2026-05-07 23:04 41.11960 -95.26525 31856 ft 404 kts 263°
2026-05-07 23:04 41.11033 -95.33887 31847 ft 404 kts 263°
2026-05-07 23:05 41.10109 -95.41220 31861 ft 403 kts 263°
2026-05-07 23:05 41.09177 -95.48560 31870 ft 403 kts 263°
2026-05-07 23:06 41.08240 -95.55880 31873 ft 402 kts 263°
2026-05-07 23:06 41.07296 -95.63189 31877 ft 402 kts 263°
2026-05-07 23:07 41.06349 -95.70456 31874 ft 402 kts 263°
2026-05-07 23:07 41.05392 -95.77757 31859 ft 401 kts 263°
2026-05-07 23:08 41.04438 -95.85037 31864 ft 401 kts 263°
2026-05-07 23:08 41.03491 -95.92307 31860 ft 400 kts 263°
2026-05-07 23:09 41.02530 -95.99569 31879 ft 400 kts 263°
2026-05-07 23:09 41.01566 -96.06818 31877 ft 400 kts 263°
2026-05-07 23:10 41.00595 -96.14064 31863 ft 399 kts 263°
2026-05-07 23:10 40.99627 -96.21303 31874 ft 399 kts 263°
2026-05-07 23:11 40.98655 -96.28524 31874 ft 398 kts 263°
2026-05-07 23:11 40.97674 -96.35734 31875 ft 398 kts 263°
2026-05-07 23:12 40.96703 -96.42890 31866 ft 398 kts 263°
2026-05-07 23:12 40.95715 -96.50087 31845 ft 397 kts 263°
2026-05-07 23:13 40.94732 -96.57285 31863 ft 397 kts 263°
2026-05-07 23:13 40.93738 -96.64470 31857 ft 396 kts 263°
2026-05-07 23:14 40.92739 -96.71620 31883 ft 394 kts 263°
2026-05-07 23:14 40.91968 -96.77551 31890 ft 393 kts 264°
2026-05-07 23:15 40.91303 -96.84698 31873 ft 391 kts 266°
2026-05-07 23:15 40.90704 -96.91856 31868 ft 392 kts 266°
2026-05-07 23:16 40.90048 -96.99013 31867 ft 392 kts 265°
2026-05-07 23:16 40.89358 -97.06175 31873 ft 393 kts 265°
2026-05-07 23:17 40.88655 -97.13337 31877 ft 393 kts 265°
2026-05-07 23:17 40.87961 -97.20452 31879 ft 393 kts 265°
2026-05-07 23:18 40.87259 -97.27633 31882 ft 393 kts 265°
2026-05-07 23:18 40.86551 -97.34795 31883 ft 393 kts 265°
2026-05-07 23:19 40.85839 -97.41960 31876 ft 393 kts 265°
2026-05-07 23:19 40.85120 -97.49113 31880 ft 393 kts 265°
2026-05-07 23:20 40.84397 -97.56271 31883 ft 393 kts 265°
2026-05-07 23:20 40.83675 -97.63431 31863 ft 393 kts 265°
2026-05-07 23:21 40.82950 -97.70585 31868 ft 393 kts 265°
2026-05-07 23:21 40.82221 -97.77748 31870 ft 393 kts 265°
2026-05-07 23:22 40.81490 -97.84860 31866 ft 393 kts 265°
2026-05-07 23:22 40.80741 -97.92019 31871 ft 394 kts 265°
2026-05-07 23:23 40.79989 -97.99187 31862 ft 394 kts 265°
2026-05-07 23:23 40.79235 -98.06359 31866 ft 395 kts 264°
2026-05-07 23:24 40.78477 -98.13550 31869 ft 396 kts 264°
2026-05-07 23:24 40.77716 -98.20743 31866 ft 396 kts 264°
2026-05-07 23:25 40.76948 -98.27936 31868 ft 396 kts 264°
2026-05-07 23:25 40.76175 -98.35101 31842 ft 397 kts 264°
2026-05-07 23:26 40.75395 -98.42306 31856 ft 398 kts 264°
2026-05-07 23:26 40.74609 -98.49539 31846 ft 399 kts 264°
2026-05-07 23:27 40.73413 -98.60403 31867 ft 399 kts 264°
2026-05-07 23:27 40.72612 -98.67657 31874 ft 399 kts 264°
2026-05-07 23:28 40.71806 -98.74907 31856 ft 400 kts 264°
2026-05-07 23:28 40.70993 -98.82164 31865 ft 401 kts 264°
2026-05-07 23:29 40.70175 -98.89448 31873 ft 402 kts 264°
2026-05-07 23:29 40.69347 -98.96747 31877 ft 402 kts 264°
2026-05-07 23:30 40.68512 -99.04048 31878 ft 403 kts 264°
2026-05-07 23:30 40.67681 -99.11306 31869 ft 403 kts 264°
2026-05-07 23:31 40.66842 -99.18628 31866 ft 404 kts 264°
2026-05-07 23:31 40.65990 -99.25956 31864 ft 405 kts 264°
2026-05-07 23:32 40.65142 -99.33301 31857 ft 406 kts 263°
2026-05-07 23:32 40.64280 -99.40654 31853 ft 406 kts 263°
2026-05-07 23:33 40.63414 -99.48004 31834 ft 406 kts 263°
2026-05-07 23:33 40.62534 -99.55364 31840 ft 407 kts 263°
2026-05-07 23:34 40.61656 -99.62745 31847 ft 408 kts 263°
2026-05-07 23:34 40.60773 -99.70137 31850 ft 409 kts 263°
2026-05-07 23:35 40.59885 -99.77480 31854 ft 409 kts 263°
2026-05-07 23:35 40.58988 -99.84871 31839 ft 409 kts 263°
2026-05-07 23:36 40.58083 -99.92276 31841 ft 410 kts 264°
2026-05-07 23:36 40.57182 -99.99682 31851 ft 410 kts 264°
2026-05-07 23:37 40.56271 -100.07101 31856 ft 411 kts 263°
2026-05-07 23:37 40.55353 -100.14520 31860 ft 411 kts 263°
2026-05-07 23:38 40.54428 -100.21942 31845 ft 411 kts 264°
2026-05-07 23:38 40.53493 -100.29384 31851 ft 412 kts 264°
2026-05-07 23:39 40.52558 -100.36817 31852 ft 412 kts 264°
2026-05-07 23:39 40.51621 -100.44194 31860 ft 412 kts 264°
2026-05-07 23:40 40.50672 -100.51619 31873 ft 411 kts 264°
2026-05-07 23:40 40.49731 -100.59038 31864 ft 412 kts 264°
2026-05-07 23:41 40.48782 -100.66463 31867 ft 412 kts 264°
2026-05-07 23:41 40.47817 -100.73892 31872 ft 413 kts 264°
2026-05-07 23:42 40.46847 -100.81319 31874 ft 412 kts 264°
2026-05-07 23:42 40.45878 -100.88740 31873 ft 412 kts 264°
2026-05-07 23:43 40.44898 -100.96154 31870 ft 412 kts 264°
2026-05-07 23:43 40.43904 -101.03520 31874 ft 413 kts 264°
2026-05-07 23:44 40.42893 -101.10943 31875 ft 413 kts 264°
2026-05-07 23:44 40.41887 -101.18362 31877 ft 413 kts 264°
2026-05-07 23:45 40.40878 -101.25786 31884 ft 413 kts 264°
2026-05-07 23:45 40.39858 -101.33208 31862 ft 413 kts 265°
2026-05-07 23:46 40.38831 -101.40621 31880 ft 413 kts 265°
2026-05-07 23:46 40.37797 -101.48026 31887 ft 412 kts 265°
2026-05-07 23:47 40.36763 -101.55423 31897 ft 412 kts 265°
2026-05-07 23:47 40.35730 -101.62821 31901 ft 413 kts 265°
2026-05-07 23:48 40.34694 -101.70213 31892 ft 412 kts 265°
2026-05-07 23:48 40.33648 -101.77599 31911 ft 412 kts 265°
2026-05-07 23:49 40.32601 -101.84977 31898 ft 412 kts 265°
2026-05-07 23:49 40.31545 -101.92363 31897 ft 412 kts 265°
2026-05-07 23:50 40.30493 -101.99698 31893 ft 412 kts 265°
2026-05-07 23:50 40.29426 -102.07070 31859 ft 412 kts 265°
2026-05-07 23:51 40.28356 -102.14437 31868 ft 412 kts 265°
2026-05-07 23:51 40.27282 -102.21798 31872 ft 411 kts 265°
2026-05-07 23:52 40.26204 -102.29151 31872 ft 411 kts 265°
2026-05-07 23:52 40.25124 -102.36509 31874 ft 411 kts 265°
2026-05-07 23:53 40.24041 -102.43859 31850 ft 411 kts 265°
2026-05-07 23:53 40.22952 -102.51206 31850 ft 411 kts 265°
2026-05-07 23:54 40.21866 -102.58514 31851 ft 412 kts 265°
2026-05-07 23:54 40.20762 -102.65859 31856 ft 411 kts 264°
2026-05-07 23:55 40.19655 -102.73199 31858 ft 411 kts 264°
2026-05-07 23:55 40.18552 -102.80537 31853 ft 411 kts 264°
2026-05-07 23:56 40.17446 -102.87872 31866 ft 411 kts 264°
2026-05-07 23:56 40.16325 -102.95214 31873 ft 411 kts 264°
2026-05-07 23:57 40.15197 -103.02541 31875 ft 411 kts 264°
2026-05-07 23:57 40.14076 -103.09825 31877 ft 411 kts 264°
2026-05-07 23:58 40.12951 -103.17137 31942 ft 411 kts 264°
2026-05-07 23:58 40.11815 -103.24457 31948 ft 411 kts 264°
2026-05-07 23:59 40.10672 -103.31776 31976 ft 411 kts 264°
2026-05-07 23:59 40.09723 -103.37863 31972 ft 411 kts 264°
2026-05-08 00:00 40.08575 -103.45201 31943 ft 412 kts 264°
2026-05-08 00:00 40.07420 -103.52522 31852 ft 412 kts 264°
2026-05-08 00:01 40.06259 -103.59835 31864 ft 411 kts 263°
2026-05-08 00:01 40.05091 -103.67163 31870 ft 413 kts 263°
2026-05-08 00:02 40.03912 -103.74509 31871 ft 413 kts 263°
2026-05-08 00:02 40.02732 -103.81828 31868 ft 413 kts 263°
2026-05-08 00:03 40.01549 -103.89177 31840 ft 413 kts 263°
2026-05-08 00:03 40.00363 -103.96529 31845 ft 414 kts 263°
2026-05-08 00:04 39.99179 -104.03828 31851 ft 414 kts 263°
2026-05-08 00:04 39.97968 -104.11229 31858 ft 415 kts 263°
2026-05-08 00:05 39.96767 -104.18532 31877 ft 415 kts 263°
2026-05-08 00:05 39.95556 -104.25885 31891 ft 415 kts 263°
2026-05-08 00:06 39.94336 -104.33257 31923 ft 416 kts 263°
2026-05-08 00:06 39.93111 -104.40633 31956 ft 416 kts 263°
2026-05-08 00:07 39.91880 -104.48010 31980 ft 416 kts 263°
2026-05-08 00:07 39.90646 -104.55390 31988 ft 417 kts 263°
2026-05-08 00:08 39.89407 -104.62760 32010 ft 416 kts 263°
2026-05-08 00:08 39.88066 -104.70109 32022 ft 417 kts 261°
2026-05-08 00:09 39.86648 -104.77385 32017 ft 417 kts 261°
2026-05-08 00:09 39.85223 -104.84697 32000 ft 417 kts 261°
2026-05-08 00:10 39.83812 -104.92022 31971 ft 417 kts 261°
2026-05-08 00:10 39.82405 -104.99333 31952 ft 417 kts 261°
2026-05-08 00:11 39.80998 -105.06637 32002 ft 416 kts 261°
2026-05-08 00:11 39.79637 -105.13625 31998 ft 416 kts 261°
2026-05-08 00:12 39.78218 -105.20905 31987 ft 416 kts 261°
2026-05-08 00:12 39.76794 -105.28192 31981 ft 416 kts 261°
2026-05-08 00:13 39.75364 -105.35480 31950 ft 416 kts 260°
2026-05-08 00:13 39.73939 -105.42714 31974 ft 416 kts 260°
2026-05-08 00:14 39.72496 -105.50010 31978 ft 417 kts 260°
2026-05-08 00:14 39.71051 -105.57306 32009 ft 417 kts 260°
2026-05-08 00:15 39.69592 -105.64610 31992 ft 417 kts 260°
2026-05-08 00:15 39.68121 -105.71979 32055 ft 425 kts 261°
2026-05-08 00:16 39.66642 -105.79416 32084 ft 426 kts 261°
2026-05-08 00:16 39.65145 -105.86860 32085 ft 426 kts 261°
2026-05-08 00:17 39.63637 -105.94295 32092 ft 426 kts 261°
2026-05-08 00:17 39.62134 -106.01718 32083 ft 425 kts 261°
2026-05-08 00:18 39.60636 -106.09086 32101 ft 425 kts 261°
2026-05-08 00:18 39.59118 -106.16501 32101 ft 425 kts 261°
2026-05-08 00:19 39.57596 -106.23902 32101 ft 425 kts 261°
2026-05-08 00:19 39.56077 -106.31304 32102 ft 425 kts 261°
2026-05-08 00:20 39.54553 -106.38702 32086 ft 425 kts 261°
2026-05-08 00:20 39.53017 -106.46107 32087 ft 425 kts 260°
2026-05-08 00:21 39.51481 -106.53502 32078 ft 425 kts 260°
2026-05-08 00:21 39.49933 -106.60921 32084 ft 427 kts 260°
2026-05-08 00:22 39.48380 -106.68333 32080 ft 426 kts 260°
2026-05-08 00:22 39.46827 -106.75737 32062 ft 426 kts 261°
2026-05-08 00:23 39.45281 -106.83104 32038 ft 426 kts 261°
2026-05-08 00:23 39.43707 -106.90498 32078 ft 427 kts 259°
2026-05-08 00:24 39.41943 -106.97832 32060 ft 427 kts 258°
2026-05-08 00:24 39.40059 -107.05135 32019 ft 428 kts 257°
2026-05-08 00:25 39.38182 -107.12453 32007 ft 429 kts 258°
2026-05-08 00:25 39.36331 -107.19795 31993 ft 430 kts 258°
2026-05-08 00:26 39.34483 -107.27140 31983 ft 430 kts 258°
2026-05-08 00:26 39.32634 -107.34488 31993 ft 430 kts 258°
2026-05-08 00:27 39.30767 -107.41833 31979 ft 431 kts 258°
2026-05-08 00:27 39.28891 -107.49179 31984 ft 431 kts 258°
2026-05-08 00:28 39.27016 -107.56526 31991 ft 431 kts 258°
2026-05-08 00:28 39.25131 -107.63891 32001 ft 432 kts 258°
2026-05-08 00:29 39.23254 -107.71200 32003 ft 432 kts 257°
2026-05-08 00:29 39.21341 -107.78597 31985 ft 432 kts 258°
2026-05-08 00:30 39.19457 -107.85915 31992 ft 432 kts 258°
2026-05-08 00:30 39.17551 -107.93289 31988 ft 433 kts 257°
2026-05-08 00:31 39.15643 -108.00615 31992 ft 433 kts 257°
2026-05-08 00:31 39.13721 -108.07965 31984 ft 433 kts 257°
2026-05-08 00:32 39.11796 -108.15317 31995 ft 433 kts 257°
2026-05-08 00:32 39.09873 -108.22667 32004 ft 434 kts 257°
2026-05-08 00:33 39.07945 -108.30021 32022 ft 433 kts 257°
2026-05-08 00:33 39.06021 -108.37311 32032 ft 433 kts 257°
2026-05-08 00:34 39.04076 -108.44645 32021 ft 433 kts 257°
2026-05-08 00:34 39.02134 -108.51972 32027 ft 433 kts 257°
2026-05-08 00:35 39.00182 -108.59307 32021 ft 433 kts 257°
2026-05-08 00:35 38.98226 -108.66630 32007 ft 433 kts 257°
2026-05-08 00:36 38.96270 -108.73950 32010 ft 433 kts 257°
2026-05-08 00:36 38.94309 -108.81267 31946 ft 434 kts 257°
2026-05-08 00:37 38.92337 -108.88599 31942 ft 434 kts 257°
2026-05-08 00:38 38.89370 -108.99550 31935 ft 435 kts 257°
2026-05-08 00:38 38.87378 -109.06884 31937 ft 436 kts 257°
2026-05-08 00:39 38.85380 -109.14239 31924 ft 438 kts 256°
2026-05-08 00:39 38.83359 -109.21662 31966 ft 441 kts 256°
2026-05-08 00:40 38.81329 -109.29098 31951 ft 442 kts 256°
2026-05-08 00:40 38.79280 -109.36536 31975 ft 442 kts 256°
2026-05-08 00:41 38.77236 -109.43969 31960 ft 442 kts 256°
2026-05-08 00:41 38.75197 -109.51385 31930 ft 442 kts 256°
2026-05-08 00:42 38.73141 -109.58807 31921 ft 442 kts 256°
2026-05-08 00:42 38.71081 -109.66227 31916 ft 442 kts 256°
2026-05-08 00:43 38.69014 -109.73648 32013 ft 443 kts 256°
2026-05-08 00:43 38.66937 -109.81086 31898 ft 443 kts 256°
2026-05-08 00:44 38.64861 -109.88523 31906 ft 443 kts 256°
2026-05-08 00:44 38.62792 -109.95911 31907 ft 443 kts 256°
2026-05-08 00:45 38.60690 -110.03334 31901 ft 444 kts 256°
2026-05-08 00:45 38.58597 -110.10746 31907 ft 443 kts 256°
2026-05-08 00:46 38.56860 -110.16909 31885 ft 444 kts 255°
2026-05-08 00:46 38.54756 -110.24339 31890 ft 445 kts 255°
2026-05-08 00:47 38.52641 -110.31771 31902 ft 445 kts 255°
2026-05-08 00:47 38.50524 -110.39199 31936 ft 446 kts 255°
2026-05-08 00:48 38.48394 -110.46638 31922 ft 446 kts 255°
2026-05-08 00:48 38.46258 -110.54061 31919 ft 447 kts 255°
2026-05-08 00:49 38.44120 -110.61524 31908 ft 448 kts 255°
2026-05-08 00:49 38.43045 -110.65262 32019 ft 449 kts 255°
2026-05-08 00:49 38.41852 -110.68960 32016 ft 454 kts 248°
2026-05-08 00:50 38.38236 -110.75664 32016 ft 462 kts 237°
2026-05-08 00:50 38.34311 -110.82142 31985 ft 462 kts 237°
2026-05-08 00:51 38.30391 -110.88642 31969 ft 463 kts 237°
2026-05-08 00:51 38.26454 -110.95155 31949 ft 464 kts 237°
2026-05-08 00:52 38.22525 -111.01614 31952 ft 465 kts 237°
2026-05-08 00:52 38.18570 -111.08110 31943 ft 465 kts 237°
2026-05-08 00:53 38.14609 -111.14604 31950 ft 465 kts 237°
2026-05-08 00:53 38.10645 -111.21088 31954 ft 465 kts 237°
2026-05-08 00:54 38.06675 -111.27569 31976 ft 465 kts 237°
2026-05-08 00:54 38.02699 -111.34043 31990 ft 465 kts 236°
2026-05-08 00:55 37.98719 -111.40529 31993 ft 466 kts 236°
2026-05-08 00:55 37.94725 -111.46998 32016 ft 466 kts 236°
2026-05-08 00:56 37.90728 -111.53471 31987 ft 466 kts 236°
2026-05-08 00:56 37.86730 -111.59948 31990 ft 467 kts 236°
2026-05-08 00:57 37.82715 -111.66418 31988 ft 467 kts 236°
2026-05-08 00:57 37.78693 -111.72876 31987 ft 467 kts 236°
2026-05-08 00:58 37.74677 -111.79334 32031 ft 467 kts 236°
2026-05-08 00:58 37.70652 -111.85790 32052 ft 467 kts 235°
2026-05-08 00:59 37.66625 -111.92241 32094 ft 468 kts 235°
2026-05-08 00:59 37.62588 -111.98703 32120 ft 469 kts 235°
2026-05-08 01:00 37.58573 -112.05107 32124 ft 469 kts 235°
2026-05-08 01:00 37.54520 -112.11549 32110 ft 469 kts 235°
2026-05-08 01:01 37.50827 -112.18283 32079 ft 466 kts 240°
2026-05-08 01:01 37.47288 -112.25141 32044 ft 467 kts 240°
2026-05-08 01:02 37.43736 -112.31985 31997 ft 467 kts 240°
2026-05-08 01:02 37.40183 -112.38821 31986 ft 467 kts 240°
2026-05-08 01:03 37.36625 -112.45669 31934 ft 467 kts 239°
2026-05-08 01:03 37.33066 -112.52502 31946 ft 468 kts 240°
2026-05-08 01:04 37.29488 -112.59334 31948 ft 468 kts 240°
2026-05-08 01:04 37.25903 -112.66171 31947 ft 469 kts 240°
2026-05-08 01:05 37.22318 -112.73005 31933 ft 469 kts 240°
2026-05-08 01:05 37.18748 -112.79792 31974 ft 469 kts 240°
2026-05-08 01:06 37.15152 -112.86616 31999 ft 469 kts 240°
2026-05-08 01:06 37.11549 -112.93446 32027 ft 470 kts 240°
2026-05-08 01:07 37.07941 -113.00259 32060 ft 469 kts 240°
2026-05-08 01:07 37.04327 -113.07071 32068 ft 469 kts 240°
2026-05-08 01:08 37.00714 -113.13877 32059 ft 470 kts 239°
2026-05-08 01:08 36.97086 -113.20689 32030 ft 471 kts 239°
2026-05-08 01:09 36.93436 -113.27524 31983 ft 472 kts 239°
2026-05-08 01:09 36.89786 -113.34348 31943 ft 472 kts 239°
2026-05-08 01:10 36.86136 -113.41176 31861 ft 473 kts 239°
2026-05-08 01:10 36.84300 -113.44607 31010 ft 477 kts 239°
2026-05-08 01:10 36.82481 -113.48000 30021 ft 477 kts 239°
2026-05-08 01:10 36.80632 -113.51447 28921 ft 478 kts 239°
2026-05-08 01:11 36.78781 -113.54890 27949 ft 476 kts 239°
2026-05-08 01:11 36.76943 -113.58311 26945 ft 474 kts 239°
2026-05-08 01:11 36.75094 -113.61757 25855 ft 481 kts 239°
2026-05-08 01:11 36.73222 -113.65250 24705 ft 489 kts 239°
2026-05-08 01:12 36.71326 -113.68781 23949 ft 489 kts 239°
2026-05-08 01:12 36.69435 -113.72286 23171 ft 486 kts 239°
2026-05-08 01:12 36.67553 -113.75767 22376 ft 481 kts 238°
2026-05-08 01:12 36.65698 -113.79200 21690 ft 474 kts 239°
2026-05-08 01:13 36.63869 -113.82587 21014 ft 468 kts 238°
2026-05-08 01:13 36.62063 -113.85928 20359 ft 463 kts 238°
2026-05-08 01:13 36.60275 -113.89234 19692 ft 457 kts 238°
2026-05-08 01:13 36.58500 -113.92491 19061 ft 453 kts 238°
2026-05-08 01:14 36.56669 -113.95653 18457 ft 448 kts 236°
2026-05-08 01:14 36.54782 -113.98726 17810 ft 444 kts 234°
2026-05-08 01:14 36.52884 -114.01709 17258 ft 436 kts 234°
2026-05-08 01:14 36.51017 -114.04609 16996 ft 422 kts 234°
2026-05-08 01:15 36.49242 -114.07378 16858 ft 406 kts 234°
2026-05-08 01:15 36.47527 -114.10084 16733 ft 391 kts 234°
2026-05-08 01:15 36.45885 -114.12704 16608 ft 377 kts 235°
2026-05-08 01:15 36.44310 -114.15237 16468 ft 364 kts 235°
2026-05-08 01:16 36.42787 -114.17687 16331 ft 352 kts 235°
2026-05-08 01:16 36.41313 -114.20056 16212 ft 341 kts 235°
2026-05-08 01:16 36.39887 -114.22344 15888 ft 328 kts 235°
2026-05-08 01:16 36.38481 -114.24596 15629 ft 331 kts 235°
2026-05-08 01:17 36.37065 -114.26835 15183 ft 328 kts 234°
2026-05-08 01:17 36.35654 -114.29048 14774 ft 326 kts 234°
2026-05-08 01:17 36.34238 -114.31266 14363 ft 328 kts 234°
2026-05-08 01:17 36.32820 -114.33484 13970 ft 328 kts 234°
2026-05-08 01:18 36.31409 -114.35688 13581 ft 326 kts 234°
2026-05-08 01:18 36.30010 -114.37873 13123 ft 320 kts 234°
2026-05-08 01:18 36.28635 -114.40024 12717 ft 317 kts 234°
2026-05-08 01:18 36.27266 -114.42170 12307 ft 317 kts 234°
2026-05-08 01:19 36.25901 -114.44304 11919 ft 316 kts 234°
2026-05-08 01:19 36.24537 -114.46427 11581 ft 312 kts 234°
2026-05-08 01:19 36.23192 -114.48494 11194 ft 311 kts 233°
2026-05-08 01:19 36.21837 -114.50558 10853 ft 308 kts 233°
2026-05-08 01:20 36.20490 -114.52608 10400 ft 304 kts 233°
2026-05-08 01:20 36.19168 -114.54624 10009 ft 299 kts 234°
2026-05-08 01:20 36.17863 -114.56619 9639 ft 297 kts 234°
2026-05-08 01:20 36.16573 -114.58595 9244 ft 294 kts 234°
2026-05-08 01:21 36.15294 -114.60559 8868 ft 292 kts 234°
2026-05-08 01:21 36.14025 -114.62504 8701 ft 290 kts 233°
2026-05-08 01:21 36.12759 -114.64440 8512 ft 289 kts 233°
2026-05-08 01:21 36.11504 -114.66356 8345 ft 282 kts 233°
2026-05-08 01:22 36.10294 -114.68202 8236 ft 271 kts 233°
2026-05-08 01:22 36.09131 -114.69969 8128 ft 259 kts 233°
2026-05-08 01:22 36.08044 -114.71711 8027 ft 253 kts 242°
2026-05-08 01:22 36.07411 -114.73692 7806 ft 244 kts 261°
2026-05-08 01:23 36.07308 -114.75750 7524 ft 237 kts 271°
2026-05-08 01:23 36.07323 -114.77764 7248 ft 231 kts 271°
2026-05-08 01:23 36.07333 -114.79701 6979 ft 218 kts 271°
2026-05-08 01:23 36.07337 -114.81525 6710 ft 206 kts 271°
2026-05-08 01:24 36.07341 -114.83253 6451 ft 196 kts 271°
2026-05-08 01:24 36.07344 -114.84900 6223 ft 187 kts 270°
2026-05-08 01:24 36.07348 -114.86457 6000 ft 184 kts 270°
2026-05-08 01:24 36.07350 -114.88075 5760 ft 191 kts 270°
2026-05-08 01:25 36.07353 -114.89742 5498 ft 192 kts 270°
2026-05-08 01:25 36.07355 -114.91391 5259 ft 192 kts 270°
2026-05-08 01:25 36.07358 -114.93016 5032 ft 189 kts 270°
2026-05-08 01:25 36.07359 -114.94577 4779 ft 176 kts 270°
2026-05-08 01:26 36.07360 -114.96084 4545 ft 171 kts 270°
2026-05-08 01:26 36.07362 -114.97526 4348 ft 169 kts 269°
2026-05-08 01:26 36.07363 -114.98973 4146 ft 168 kts 269°
2026-05-08 01:26 36.07364 -115.00429 3930 ft 170 kts 270°
2026-05-08 01:27 36.07364 -115.01877 3723 ft 168 kts 269°
2026-05-08 01:27 36.07365 -115.03315 3523 ft 164 kts 269°
2026-05-08 01:27 36.07366 -115.04676 3322 ft 156 kts 269°
2026-05-08 01:27 36.07366 -115.06007 3141 ft 154 kts 270°
2026-05-08 01:28 36.07371 -115.07336 2970 ft 155 kts 270°
2026-05-08 01:28 36.07375 -115.08671 2757 ft 156 kts 269°
2026-05-08 01:28 36.07355 -115.10012 2584 ft 157 kts 270°
2026-05-08 01:28 36.07370 -115.11365 2403 ft 157 kts 272°
2026-05-08 01:29 36.07367 -115.12713 2234 ft 156 kts 271°
2026-05-08 01:29 36.07375 -115.13978 2190 ft 126 kts 270°
2026-05-08 01:29 36.07367 -115.14586 2190 ft 89 kts 271°
2026-05-08 01:29 36.07369 -115.15140 2186 ft 38 kts 270°
2026-05-08 01:30 36.07408 -115.15362 2189 ft 16 kts 292°
2026-05-08 01:30 36.07432 -115.15430 2192 ft 6 kts 295°
2026-05-08 01:30 36.07449 -115.15475 2192 ft 5 kts 297°
2026-05-08 01:30 36.07476 -115.15527 2188 ft 12 kts 306°
2026-05-08 01:31 36.07562 -115.15647 2189 ft 23 kts 317°
2026-05-08 01:31 36.07700 -115.15805 2192 ft 26 kts 323°
2026-05-08 01:31 36.07798 -115.15761 2188 ft 16 kts 76°
2026-05-08 01:31 36.07805 -115.15632 2191 ft 14 kts 91°
2026-05-08 01:32 36.07807 -115.15511 2189 ft 16 kts 90°
2026-05-08 01:32 36.07808 -115.15332 2189 ft 26 kts 90°
2026-05-08 01:32 36.07802 -115.15093 2188 ft 28 kts 90°
2026-05-08 01:32 36.07792 -115.14859 2188 ft 27 kts 94°
2026-05-08 01:33 36.07777 -115.14632 2187 ft 27 kts 96°
2026-05-08 01:33 36.07763 -115.14383 2188 ft 29 kts 94°
2026-05-08 01:33 36.07757 -115.14135 2188 ft 28 kts 91°
2026-05-08 01:33 36.07754 -115.13898 2189 ft 25 kts 92°
2026-05-08 01:34 36.07825 -115.13810 2189 ft 9 kts 334°
2026-05-08 01:34 36.07838 -115.13887 2190 ft 16 kts 273°
2026-05-08 01:34 36.07917 -115.13916 2192 ft 13 kts 47°
2026-05-08 01:34 36.07982 -115.13857 2189 ft 9 kts 357°
2026-05-08 01:35 36.08029 -115.13875 2188 ft 2 kts 344°
2026-05-08 01:35 36.08039 -115.13878 2191 ft 1 kts 345°
2026-05-08 01:35 36.08044 -115.13880 2188 ft 1 kts 344°
2026-05-08 01:35 36.08047 -115.13881 2188 ft 0 kts 344°
2026-05-08 01:36 36.08051 -115.13882 2188 ft 1 kts 344°